Location: Sternwarte ZA, Rosenfeld-Brittheim
(48.2889°N, 8.6789°E)
Time: 05:58:19
(UTC+01:00)

ISS - Pass Details

Date: 25 November 2020
Orbit: 418 x 421 km, 51.6° (Epoch: 26 November)

Event Time Altitude Azimuth Distance (km) Brightness Sun altitude
Rises 17:19:35 0° 229° (SW) 2,354 1.8 -7.1°
Reaches altitude 10° 17:21:43 10° 223° (SW) 1,493 0.3 -7.5°
Maximum altitude 17:24:57 46° 149° (SSE) 568 -3.2 -8.0°
Enters shadow 17:27:59 11° 75° (ENE) 1,415 -1.7 -8.4°
